| time (UTC) | temp C | wind direction | speed KPH | gust KPH | rain 1hr cm | rain 24hr cm | rain mn cm | humidity % | barometer mb |
| 20260906184555 | 31 | 245 | 1.6 | 6.4 | 0.00 | 0.00 | 0.00 | 65 | 1016.5 |
| 20260906183048 | 31 | 151 | 1.6 | 6.4 | 0.00 | 0.00 | 0.00 | 69 | 1016.8 |
| 20260906181600 | 31 | 220 | 1.6 | 6.4 | 0.00 | 0.00 | 0.00 | 70 | 1016.9 |
| 20260906180108 | 31 | 141 | 3.2 | 11.3 | 0.00 | 0.00 | 0.00 | 71 | 1017.0 |
| 20260906174546 | 30 | 242 | 1.6 | 6.4 | 0.00 | 0.00 | 0.00 | 73 | 1017.2 |
| 20260906173045 | 29 | 217 | 1.6 | 9.7 | 0.00 | 0.00 | 0.00 | 75 | 1017.3 |
| 20260906171543 | 28 | 242 | 3.2 | 6.4 | 0.00 | 0.00 | 0.00 | 76 | 1017.5 |
| 20260906170057 | 28 | 227 | 0.0 | 9.7 | 0.00 | 0.00 | 0.00 | 75 | 1017.7 |
| 20260906164549 | 28 | 113 | 1.6 | 9.7 | 0.00 | 0.00 | 0.00 | 77 | 1017.9 |
| 20260906163103 | 28 | 151 | 1.6 | 8.0 | 0.00 | 0.00 | 0.00 | 76 | 1018.0 |
| 20260906161542 | 28 | 180 | 0.0 | 4.8 | 0.00 | 0.00 | 0.00 | 76 | 1017.8 |
| 20260906160046 | 27 | 153 | 1.6 | 11.3 | 0.00 | 0.00 | 0.00 | 77 | 1017.9 |
| 20260906154543 | 27 | 207 | 0.0 | 3.2 | 0.00 | 0.00 | 0.00 | 80 | 1018.0 |
| 20260906153047 | 26 | 314 | 0.0 | 0.0 | 0.00 | 0.00 | 0.00 | 83 | 1018.2 |
| 20260906151550 | 25 | 314 | 0.0 | 4.8 | 0.00 | 0.00 | 0.00 | 85 | 1018.1 |
| 20260906150046 | 25 | 314 | 0.0 | 4.8 | 0.00 | 0.00 | 0.00 | 87 | 1018.0 |
| 20260906144544 | 25 | 236 | 1.6 | 9.7 | 0.00 | 0.00 | 0.00 | 87 | 1017.9 |
| 20260906143047 | 25 | 124 | 3.2 | 11.3 | 0.00 | 0.00 | 0.00 | 86 | 1017.3 |
| 20260906141548 | 25 | 107 | 3.2 | 11.3 | 0.00 | 0.00 | 0.00 | 87 | 1017.3 |
| 20260906140056 | 25 | 133 | 4.8 | 11.3 | 0.00 | 0.00 | 0.00 | 87 | 1017.3 |
| 20260906134643 | 24 | 97 | 3.2 | 11.3 | 0.00 | 0.00 | 0.00 | 88 | 1017.3 |
| 20260906133120 | 24 | 122 | 1.6 | 11.3 | 0.00 | 0.00 | 0.00 | 88 | 1017.3 |
| 20260906131610 | 23 | 160 | 3.2 | 11.3 | 0.00 | 0.00 | 0.00 | 89 | 1017.3 |
| 20260906130100 | 23 | 74 | 1.6 | 6.4 | 0.00 | 0.00 | 0.00 | 90 | 1017.0 |
| 20260906124547 | 23 | 113 | 3.2 | 9.7 | 0.00 | 0.00 | 0.00 | 90 | 1016.9 |
| 20260906123048 | 23 | 134 | 1.6 | 8.0 | 0.00 | 0.00 | 0.00 | 90 | 1016.6 |
| 20260906121552 | 22 | 149 | 1.6 | 8.0 | 0.00 | 0.00 | 0.00 | 90 | 1016.5 |
| 20260906120049 | 22 | 120 | 1.6 | 6.4 | 0.00 | 0.00 | 0.00 | 90 | 1016.3 |
| 20260906114613 | 23 | 87 | 1.6 | 4.8 | 0.00 | 0.00 | 0.00 | 90 | 1016.3 |
| 20260906113102 | 23 | 87 | 1.6 | 6.4 | 0.00 | 0.00 | 0.00 | 89 | 1016.2 |
| 20260906111614 | 23 | 46 | 1.6 | 4.8 | 0.00 | 0.00 | 0.00 | 88 | 1016.0 |
| 20260906110118 | 23 | 91 | 1.6 | 8.0 | 0.00 | 0.00 | 0.00 | 88 | 1016.0 |
| 20260906104607 | 23 | 131 | 1.6 | 6.4 | 0.00 | 0.00 | 0.00 | 88 | 1015.9 |
| 20260906103123 | 23 | 108 | 1.6 | 6.4 | 0.00 | 0.00 | 0.00 | 88 | 1015.9 |
| 20260906101619 | 23 | 143 | 1.6 | 6.4 | 0.00 | 0.00 | 0.00 | 87 | 1015.9 |
| 20260906100106 | 23 | 120 | 1.6 | 11.3 | 0.00 | 0.00 | 0.00 | 87 | 1015.8 |
| 20260906094614 | 23 | 133 | 1.6 | 9.7 | 0.00 | 0.00 | 0.00 | 88 | 1015.7 |
| 20260906093057 | 23 | 148 | 1.6 | 8.0 | 0.00 | 0.00 | 0.00 | 88 | 1015.8 |
| 20260906091555 | 23 | 182 | 1.6 | 8.0 | 0.00 | 0.00 | 0.00 | 89 | 1015.7 |
| 20260906090101 | 23 | 134 | 1.6 | 6.4 | 0.00 | 0.00 | 0.00 | 89 | 1015.8 |
| 20260906084554 | 23 | 157 | 1.6 | 9.7 | 0.00 | 0.00 | 0.00 | 90 | 1015.8 |
| 20260906083100 | 23 | 116 | 1.6 | 6.4 | 0.00 | 0.00 | 0.00 | 89 | 1015.8 |
| 20260906081555 | 23 | 115 | 1.6 | 8.0 | 0.00 | 0.00 | 0.00 | 89 | 1015.7 |
| 20260906080147 | 23 | 128 | 1.6 | 4.8 | 0.00 | 0.00 | 0.00 | 89 | 1015.9 |
| 20260906074559 | 24 | 98 | 1.6 | 4.8 | 0.00 | 0.00 | 0.00 | 88 | 1015.7 |
| 20260906073047 | 24 | 111 | 1.6 | 6.4 | 0.00 | 0.00 | 0.00 | 88 | 1015.7 |
| 20260906071554 | 24 | 130 | 1.6 | 8.0 | 0.00 | 0.00 | 0.00 | 88 | 1015.7 |
| 20260906064545 | 24 | 90 | 0.0 | 6.4 | 0.00 | 0.00 | 0.00 | 87 | 1015.9 |
| 20260906063122 | 25 | 86 | 1.6 | 4.8 | 0.00 | 0.00 | 0.00 | 87 | 1016.0 |
| 20260906061552 | 25 | 136 | 1.6 | 8.0 | 0.00 | 0.00 | 0.00 | 87 | 1015.9 |
| 20260906060106 | 25 | 143 | 1.6 | 8.0 | 0.00 | 0.00 | 0.00 | 88 | 1016.1 |
| 20260906054612 | 25 | 153 | 1.6 | 6.4 | 0.00 | 0.00 | 0.00 | 87 | 1016.2 |
| 20260906053053 | 25 | 67 | 0.0 | 8.0 | 0.00 | 0.00 | 0.00 | 87 | 1016.2 |
| 20260906051625 | 25 | 99 | 1.6 | 6.4 | 0.00 | 0.00 | 0.00 | 87 | 1016.0 |
| 20260906050524 | 25 | 111 | 3.2 | 9.7 | 0.00 | 0.00 | 0.00 | 88 | 1016.1 |
| 20260906050212 | 25 | 111 | 3.2 | 9.7 | 0.00 | 0.00 | 0.00 | 88 | 1016.1 |
| 20260906044545 | 25 | 89 | 1.6 | 4.8 | 0.00 | 0.00 | 0.00 | 87 | 1015.9 |
| 20260906043043 | 25 | 89 | 0.0 | 3.2 | 0.00 | 0.00 | 0.00 | 86 | 1016.0 |
| 20260906041550 | 26 | 89 | 0.0 | 1.6 | 0.00 | 0.00 | 0.00 | 86 | 1016.1 |
| 20260906040049 | 26 | 89 | 0.0 | 1.6 | 0.00 | 0.00 | 0.00 | 85 | 1016.1 |
| 20260906034542 | 26 | 89 | 0.0 | 6.4 | 0.00 | 0.00 | 0.00 | 85 | 1016.0 |
| 20260906033102 | 26 | 119 | 0.0 | 3.2 | 0.00 | 0.00 | 0.00 | 84 | 1016.0 |
| 20260906031549 | 26 | 119 | 0.0 | 0.0 | 0.00 | 0.00 | 0.00 | 84 | 1015.7 |
| 20260906030046 | 26 | 119 | 0.0 | 3.2 | 0.00 | 0.00 | 0.00 | 83 | 1015.4 |
| 20260906024541 | 27 | 119 | 0.0 | 4.8 | 0.00 | 0.00 | 0.00 | 83 | 1015.3 |
| 20260906023046 | 27 | 119 | 0.0 | 3.2 | 0.00 | 0.00 | 0.00 | 83 | 1015.1 |
| 20260906021557 | 27 | 119 | 0.0 | 0.0 | 0.00 | 0.00 | 0.00 | 82 | 1014.8 |
| 20260906020047 | 28 | 119 | 0.0 | 4.8 | 0.00 | 0.00 | 0.00 | 81 | 1014.7 |
| 20260906014546 | 28 | 119 | 0.0 | 3.2 | 0.00 | 0.00 | 0.00 | 81 | 1014.5 |
| 20260906013055 | 28 | 119 | 0.0 | 3.2 | 0.00 | 0.00 | 0.00 | 80 | 1014.1 |
| 20260906011604 | 29 | 119 | 0.0 | 0.0 | 0.00 | 0.00 | 0.00 | 78 | 1014.3 |
| 20260906010130 | 30 | 119 | 0.0 | 1.6 | 0.00 | 0.00 | 0.00 | 76 | 1013.8 |
| 20260906004549 | 30 | 119 | 0.0 | 4.8 | 0.00 | 0.00 | 0.00 | 74 | 1013.8 |
| 20260906003046 | 31 | 119 | 1.6 | 3.2 | 0.00 | 0.00 | 0.00 | 72 | 1013.8 |
| 20260906001600 | 32 | 119 | 1.6 | 4.8 | 0.00 | 0.00 | 0.00 | 70 | 1014.0 |
| 20260906000049 | 32 | 87 | 0.0 | 6.4 | 0.00 | 0.00 | 0.00 | 68 | 1014.0 |
| 20260905234606 | 33 | 122 | 1.6 | 6.4 | 0.00 | 0.00 | 0.00 | 66 | 1014.0 |
| 20260905233102 | 33 | 99 | 1.6 | 11.3 | 0.00 | 0.00 | 0.00 | 65 | 1013.9 |
| 20260905231556 | 33 | 86 | 3.2 | 14.5 | 0.00 | 0.00 | 0.00 | 64 | 1013.9 |
| 20260905230048 | 33 | 129 | 1.6 | 14.5 | 0.00 | 0.00 | 0.00 | 65 | 1013.9 |
| 20260905224610 | 33 | 180 | 3.2 | 16.1 | 0.00 | 0.00 | 0.00 | 64 | 1014.0 |
| 20260905223054 | 33 | 126 | 4.8 | 12.9 | 0.00 | 0.00 | 0.00 | 63 | 1014.0 |
| 20260905221553 | 33 | 138 | 8.0 | 16.1 | 0.00 | 0.00 | 0.00 | 62 | 1014.0 |
| 20260905214536 | 34 | 80 | 4.8 | 16.1 | 0.00 | 0.00 | 0.00 | 61 | 1014.0 |
| 20260905213037 | 34 | 128 | 4.8 | 16.1 | 0.00 | 0.00 | 0.00 | 62 | 1014.3 |
| 20260905210042 | 33 | 61 | 6.4 | 16.1 | 0.00 | 0.00 | 0.00 | 62 | 1014.7 |
| 20260905201539 | 34 | 102 | 6.4 | 12.9 | 0.00 | 0.00 | 0.00 | 61 | 1015.3 |
| 20260905200048 | 33 | 145 | 6.4 | 16.1 | 0.00 | 0.00 | 0.00 | 62 | 1015.7 |
| 20260905194538 | 33 | 130 | 4.8 | 16.1 | 0.00 | 0.00 | 0.00 | 63 | 1015.9 |
| 20260905193129 | 33 | 51 | 6.4 | 20.9 | 0.00 | 0.00 | 0.00 | 62 | 1016.2 |
| 20260905191538 | 33 | 22 | 4.8 | 19.3 | 0.00 | 0.00 | 0.00 | 64 | 1016.4 |
| 20260905190059 | 33 | 170 | 6.4 | 17.7 | 0.00 | 0.00 | 0.00 | 63 | 1016.8 |